Volver al catálogo

SL-14 R/B

ActivoPO
NORAD 23318·ROCKET BODY·🇷🇺 Russia

Lanzado Oct 11, 1994 desde Plesetsk Cosmodrome

Loading…

Próximos Pases (próximas 24 horas)

TLE

ActualizadoSource: Space-Track

Época: Sep 14, 2026, 02:16 UTC

1 23318U 94066B   26257.09464200  .00000242  00000-0  28194-4 0  9995
2 23318  82.5370 274.9509 0022098 337.2361  22.7870 14.81006535721500

Sigue SL-14 R/B en tiempo real con AllMySat

Download on the App Store